Weather History for PAHO - February, 2014

Change the Weather History Date:

Thursday, February 6, 2014

  Actual Average Record
Temperature  
Mean Temperature 28 °F -  
Max Temperature 35 °F 33 °F 55 °F (2000)
Min Temperature 21 °F 21 °F -13 °F (1999)
Degree Days  
Heating Degree Days 37    
Moisture  
Dew Point 19 °F    
Average Humidity 68    
Maximum Humidity 82    
Minimum Humidity 42    
Precipitation  
Precipitation 0.00 in - - ()
Sea Level Pressure  
Sea Level Pressure 30.14 in    
Wind  
Wind Speed 3 mph (NE)    
Max Wind Speed 23 mph    
Max Gust Speed 33 mph    
Visibility 10 miles    
Events Snow    
Averages and records for this station are not official NWS values.
T = Trace of Precipitation, MM = Missing Value Source: NWS Daily Summary

Daily Weather History Graph

Daily Weather History Graph

Search for Another Location

Airport or City:

Trip Planner

Search our weather history database for the weather conditions in past years. The results will help you decide how hot, cold, wet, or windy it might be!

Date:

Astronomy

Feb. 06, 2014 Rise Set
Actual Time 9:05 AM AKST 5:35 PM AKST
Civil Twilight 8:19 AM AKST 6:21 PM AKST
Nautical Twilight 7:30 AM AKST 7:10 PM AKST
Astronomical Twilight 6:42 AM AKST 7:58 PM AKST
Moon 11:07 AM AKST (2/6) 2:34 AM AKST (2/6)
Length of Visible Light 10h 01m
Length of Day
8h 30m
Waxing Crescent, 51% of the Moon is Illuminated
Feb 6
Waxing Crescent
Feb 14
Full
Feb 22
Last Quarter
Feb 28
New
Mar 8
First Quarter

Hourly Weather History & Observations

Time (AKST) Temp. Windchill Dew Point Humidity Pressure Visibility Wind Dir Wind Speed Gust Speed Precip Events Conditions
12:53 AM 25.0 °F - 17.1 °F 72% 30.56 in 10.0 mi Calm Calm - N/A   Clear
1:53 AM 24.1 °F - 18.0 °F 77% 30.56 in 10.0 mi Calm Calm - N/A   Clear
3:53 AM 23.0 °F - 16.0 °F 74% 30.53 in 10.0 mi Calm Calm - N/A   Clear
4:53 AM 21.9 °F - 17.1 °F 82% 30.50 in 10.0 mi Calm Calm - N/A   Clear
5:53 AM 21.9 °F - 16.0 °F 78% 30.48 in 10.0 mi Calm Calm - N/A   Clear
6:53 AM 23.0 °F - 17.1 °F 78% 30.45 in 10.0 mi Calm Calm - N/A   Clear
7:53 AM 21.9 °F - 15.1 °F 75% 30.42 in 10.0 mi Calm Calm - N/A   Clear
8:53 AM 21.9 °F - 15.1 °F 75% 30.40 in 10.0 mi Calm Calm - N/A   Clear
9:53 AM 21.9 °F - 16.0 °F 78% 30.37 in 10.0 mi Calm Calm - N/A   Clear
10:53 AM 27.0 °F - 19.9 °F 75% 30.30 in 10.0 mi Calm Calm - N/A   Clear
11:53 AM 32.0 °F 28.7 °F 23.0 °F 69% 30.27 in 10.0 mi SSE 3.5 mph - N/A   Clear
12:53 PM 33.1 °F - 24.1 °F 70% 30.23 in 10.0 mi Calm Calm - N/A   Clear
1:53 PM 33.1 °F 27.7 °F 24.1 °F 70% 30.14 in 10.0 mi NE 5.8 mph - N/A   Mostly Cloudy
2:53 PM 33.1 °F 30.0 °F 24.1 °F 70% 30.05 in 10.0 mi North 3.5 mph - N/A   Mostly Cloudy
3:53 PM 35.1 °F 29.3 °F 26.1 °F 70% 29.98 in 10.0 mi SSW 6.9 mph - N/A   Overcast
4:53 PM 35.1 °F 32.2 °F 26.1 °F 70% 29.88 in 10.0 mi Variable 3.5 mph 17.3 mph N/A   Mostly Cloudy
5:53 PM 34.0 °F 28.0 °F 26.1 °F 73% 29.82 in 10.0 mi NE 6.9 mph - N/A   Scattered Clouds
6:53 PM 34.0 °F 29.8 °F 26.1 °F 73% 29.78 in 10.0 mi NE 4.6 mph - N/A   Mostly Cloudy
7:53 PM 35.1 °F 26.4 °F 21.0 °F 57% 29.76 in 10.0 mi NE 12.7 mph 20.7 mph 0.00 in   Overcast
8:53 PM 33.1 °F 20.6 °F 12.0 °F 42% 29.75 in 9.0 mi NE 23.0 mph 33.4 mph 0.00 in Snow Light Snow
9:53 PM 30.0 °F 19.1 °F 10.0 °F 43% 29.73 in 10.0 mi NE 15.0 mph 27.6 mph 0.00 in   Clear
10:53 PM 30.0 °F 19.1 °F 10.0 °F 43% 29.69 in 10.0 mi NNE 15.0 mph 28.8 mph 0.00 in   Unknown
11:53 PM 28.0 °F 15.3 °F 10.9 °F 49% 29.65 in 10.0 mi NNE 18.4 mph 33.4 mph N/A   Overcast